| time (UTC) | temp F | wind direction | speed MPH | gust MPH | rain 1hr in | rain 24hr in | rain mn in | humidity % | barometer mb |
| 20260507051631 | 60 | 39 | 3.0 | 5.0 | 0.00 | 0.03 | 0.00 | 92 | 1009.4 |
| 20260507045641 | 60 | 58 | 3.0 | 6.0 | 0.00 | 0.03 | 0.03 | 92 | 1009.4 |
| 20260507044641 | 60 | 47 | 3.0 | 5.0 | 0.00 | 0.03 | 0.03 | 92 | 1009.0 |
| 20260507042642 | 61 | 34 | 3.0 | 5.0 | 0.00 | 0.03 | 0.03 | 93 | 1009.4 |
| 20260507041643 | 61 | 40 | 4.0 | 11.0 | 0.00 | 0.03 | 0.03 | 93 | 1009.0 |
| 20260507040644 | 61 | 12 | 1.0 | 3.0 | 0.00 | 0.03 | 0.03 | 93 | 1009.0 |
| 20260507035642 | 61 | 360 | 0.0 | 3.0 | 0.00 | 0.03 | 0.03 | 93 | 1009.0 |
| 20260507034643 | 61 | 34 | 3.0 | 6.0 | 0.00 | 0.03 | 0.03 | 93 | 1009.0 |
| 20260507033642 | 61 | 33 | 4.0 | 9.0 | 0.00 | 0.03 | 0.03 | 93 | 1009.4 |
| 20260507032642 | 61 | 36 | 3.0 | 6.0 | 0.00 | 0.03 | 0.03 | 93 | 1009.0 |
| 20260507031642 | 60 | 42 | 4.0 | 6.0 | 0.00 | 0.03 | 0.03 | 91 | 1009.0 |
| 20260507030642 | 61 | 3 | 4.0 | 6.0 | 0.00 | 0.03 | 0.03 | 92 | 1009.0 |
| 20260507025640 | 61 | 14 | 4.0 | 7.0 | 0.00 | 0.03 | 0.03 | 92 | 1008.7 |
| 20260507024645 | 61 | 53 | 2.0 | 3.0 | 0.00 | 0.03 | 0.03 | 92 | 1008.3 |
| 20260507023740 | 62 | 337 | 2.0 | 4.0 | 0.00 | 0.03 | 0.03 | 92 | 1008.3 |
| 20260507020743 | 62 | 353 | 3.0 | 8.0 | 0.00 | 0.03 | 0.03 | 92 | 1008.0 |
| 20260507015742 | 62 | 360 | 0.0 | 1.0 | 0.00 | 0.03 | 0.03 | 92 | 1007.6 |
| 20260507014741 | 62 | 8 | 3.0 | 5.0 | 0.00 | 0.03 | 0.03 | 91 | 1007.6 |
| 20260507013840 | 62 | 18 | 2.0 | 4.0 | 0.00 | 0.03 | 0.03 | 91 | 1007.3 |
| 20260507012843 | 62 | 1 | 1.0 | 5.0 | 0.00 | 0.03 | 0.03 | 90 | 1007.3 |
| 20260507011942 | 62 | 45 | 0.0 | 3.0 | 0.00 | 0.03 | 0.03 | 90 | 1006.9 |
| 20260507010042 | 61 | 337 | 5.0 | 9.0 | 0.00 | 0.03 | 0.03 | 89 | 1006.9 |
| 20260507005042 | 62 | 19 | 4.0 | 8.0 | 0.00 | 0.03 | 0.03 | 90 | 1006.2 |
| 20260507004042 | 62 | 35 | 3.0 | 6.0 | 0.00 | 0.03 | 0.03 | 89 | 1006.6 |
| 20260507003042 | 62 | 19 | 2.0 | 6.0 | 0.00 | 0.03 | 0.03 | 89 | 1006.6 |
| 20260507002140 | 62 | 5 | 2.0 | 5.0 | 0.00 | 0.03 | 0.03 | 89 | 1006.2 |
| 20260507001240 | 62 | 353 | 3.0 | 8.0 | 0.00 | 0.03 | 0.03 | 90 | 1006.6 |
| 20260507000242 | 62 | 31 | 2.0 | 8.0 | 0.00 | 0.03 | 0.03 | 89 | 1006.2 |
| 20260506235242 | 62 | 339 | 0.0 | 4.0 | 0.00 | 0.03 | 0.03 | 89 | 1006.6 |
| 20260506234241 | 62 | 3 | 5.0 | 11.0 | 0.00 | 0.03 | 0.03 | 89 | 1006.2 |
| 20260506233243 | 62 | 38 | 4.0 | 11.0 | 0.00 | 0.03 | 0.03 | 88 | 1006.2 |
| 20260506232342 | 62 | 360 | 3.0 | 8.0 | 0.00 | 0.03 | 0.03 | 88 | 1006.2 |
| 20260506231440 | 62 | 18 | 4.0 | 12.0 | 0.00 | 0.03 | 0.03 | 87 | 1006.2 |
| 20260506230442 | 63 | 5 | 2.0 | 6.0 | 0.00 | 0.03 | 0.03 | 86 | 1006.2 |
| 20260506225442 | 63 | 42 | 3.0 | 6.0 | 0.00 | 0.03 | 0.03 | 86 | 1006.2 |
| 20260506224442 | 63 | 30 | 5.0 | 10.0 | 0.00 | 0.03 | 0.03 | 84 | 1006.2 |
| 20260506223442 | 64 | 20 | 6.0 | 13.0 | 0.00 | 0.03 | 0.03 | 83 | 1006.2 |
| 20260506222442 | 65 | 347 | 2.0 | 5.0 | 0.00 | 0.03 | 0.03 | 82 | 1005.9 |
| 20260506221541 | 65 | 26 | 2.0 | 5.0 | 0.00 | 0.03 | 0.03 | 81 | 1005.9 |
| 20260506220542 | 66 | 53 | 4.0 | 6.0 | 0.00 | 0.03 | 0.03 | 79 | 1006.2 |
| 20260506215640 | 67 | 358 | 6.0 | 11.0 | 0.00 | 0.03 | 0.03 | 77 | 1005.9 |
| 20260506214644 | 68 | 4 | 5.0 | 13.0 | 0.00 | 0.03 | 0.03 | 76 | 1005.6 |
| 20260506213640 | 68 | 61 | 4.0 | 8.0 | 0.00 | 0.03 | 0.03 | 76 | 1005.6 |
| 20260506213544 | 68 | 57 | 2.0 | 7.0 | 0.00 | 0.03 | 0.03 | 76 | 1005.6 |
| 20260506212542 | 68 | 37 | 3.0 | 6.0 | 0.00 | 0.03 | 0.03 | 75 | 1005.9 |
| 20260506211641 | 69 | 6 | 3.0 | 10.0 | 0.00 | 0.03 | 0.03 | 75 | 1004.9 |
| 20260506210641 | 69 | 52 | 5.0 | 8.0 | 0.00 | 0.03 | 0.03 | 75 | 1005.2 |
| 20260506205642 | 71 | 10 | 5.0 | 9.0 | 0.00 | 0.03 | 0.03 | 71 | 1004.9 |
| 20260506203642 | 71 | 351 | 4.0 | 8.0 | 0.00 | 0.03 | 0.03 | 75 | 1005.2 |
| 20260506202639 | 70 | 19 | 5.0 | 8.0 | 0.00 | 0.03 | 0.03 | 78 | 1005.2 |
| 20260506201739 | 69 | 40 | 4.0 | 7.0 | 0.00 | 0.03 | 0.03 | 81 | 1004.9 |
| 20260506200742 | 69 | 21 | 5.0 | 10.0 | 0.00 | 0.03 | 0.03 | 81 | 1004.9 |
| 20260506194841 | 73 | 60 | 5.0 | 8.0 | 0.00 | 0.03 | 0.03 | 79 | 1004.2 |
| 20260506193940 | 73 | 1 | 1.0 | 5.0 | 0.00 | 0.03 | 0.03 | 80 | 1004.2 |
| 20260506192941 | 74 | 356 | 3.0 | 7.0 | 0.00 | 0.03 | 0.03 | 78 | 1003.8 |
| 20260506191039 | 75 | 352 | 3.0 | 6.0 | 0.00 | 0.03 | 0.03 | 77 | 1004.2 |
| 20260506190042 | 76 | 22 | 3.0 | 6.0 | 0.00 | 0.03 | 0.03 | 75 | 1003.8 |
| 20260506185042 | 76 | 55 | 2.0 | 6.0 | 0.00 | 0.03 | 0.03 | 76 | 1003.5 |
| 20260506184140 | 76 | 328 | 1.0 | 6.0 | 0.00 | 0.03 | 0.03 | 77 | 1004.2 |
| 20260506183140 | 75 | 47 | 2.0 | 5.0 | 0.00 | 0.03 | 0.03 | 80 | 1004.2 |
| 20260506182239 | 74 | 67 | 0.0 | 3.0 | 0.00 | 0.03 | 0.03 | 83 | 1004.2 |
| 20260506181241 | 73 | 40 | 0.0 | 1.0 | 0.00 | 0.03 | 0.03 | 84 | 1004.2 |
| 20260506180241 | 72 | 22 | 0.0 | 0.0 | 0.00 | 0.03 | 0.03 | 84 | 1004.2 |
| 20260506175243 | 71 | 45 | 1.0 | 4.0 | 0.00 | 0.03 | 0.03 | 91 | 1004.5 |
| 20260506174341 | 70 | 322 | 0.0 | 2.0 | 0.00 | 0.03 | 0.03 | 93 | 1004.7 |
| 20260506173341 | 67 | 24 | 0.0 | 4.0 | 0.02 | 0.03 | 0.03 | 97 | 1005.5 |
| 20260506171342 | 65 | 22 | 3.0 | 6.0 | 0.03 | 0.03 | 0.03 | 95 | 1005.6 |
| 20260506165342 | 63 | 63 | 6.0 | 9.0 | 0.03 | 0.03 | 0.03 | 89 | 1006.1 |
| 20260506164341 | 62 | 51 | 3.0 | 5.0 | 0.03 | 0.03 | 0.03 | 90 | 1006.2 |
| 20260506163339 | 62 | 54 | 3.0 | 5.0 | 0.01 | 0.01 | 0.01 | 97 | 1006.6 |
| 20260506162342 | 64 | 36 | 5.0 | 14.0 | 0.00 | 0.00 | 0.00 | 99 | 1006.9 |
| 20260506161341 | 65 | 56 | 4.0 | 8.0 | 0.00 | 0.00 | 0.00 | 98 | 1006.8 |
| 20260506160341 | 66 | 23 | 3.0 | 8.0 | 0.00 | 0.00 | 0.00 | 98 | 1006.4 |
| 20260506155342 | 68 | 26 | 4.0 | 10.0 | 0.00 | 0.00 | 0.00 | 96 | 1005.8 |
| 20260506154341 | 72 | 27 | 3.0 | 5.0 | 0.00 | 0.00 | 0.00 | 91 | 1004.3 |
| 20260506153341 | 74 | 22 | 0.0 | 0.0 | 0.00 | 0.00 | 0.00 | 95 | 1003.5 |
| 20260506152340 | 75 | 180 | 0.0 | 0.0 | 0.00 | 0.00 | 0.00 | 96 | 1003.5 |
| 20260506145441 | 75 | 180 | 0.0 | 0.0 | 0.00 | 0.00 | 0.00 | 96 | 1003.2 |
| 20260506144441 | 75 | 180 | 0.0 | 0.0 | 0.00 | 0.00 | 0.00 | 96 | 1002.8 |
| 20260506143540 | 75 | 180 | 0.0 | 0.0 | 0.00 | 0.00 | 0.00 | 96 | 1002.8 |
| 20260506142541 | 75 | 180 | 0.0 | 0.0 | 0.00 | 0.00 | 0.00 | 96 | 1002.4 |
| 20260506141540 | 75 | 180 | 0.0 | 0.0 | 0.00 | 0.00 | 0.00 | 96 | 1002.4 |
| 20260506135542 | 74 | 180 | 0.0 | 0.0 | 0.00 | 0.00 | 0.00 | 92 | 1002.4 |
| 20260506134540 | 74 | 180 | 0.0 | 0.0 | 0.00 | 0.00 | 0.00 | 91 | 1002.1 |
| 20260506132539 | 73 | 180 | 0.0 | 0.0 | 0.00 | 0.00 | 0.00 | 91 | 1002.1 |
| 20260506131542 | 72 | 180 | 0.0 | 0.0 | 0.00 | 0.00 | 0.00 | 89 | 1002.1 |
| 20260506125642 | 73 | 180 | 0.0 | 0.0 | 0.00 | 0.00 | 0.00 | 87 | 1001.7 |
| 20260506124642 | 72 | 180 | 0.0 | 0.0 | 0.00 | 0.00 | 0.00 | 87 | 1001.7 |
| 20260506123639 | 72 | 180 | 0.0 | 0.0 | 0.00 | 0.00 | 0.00 | 87 | 1001.7 |
| 20260506122640 | 72 | 180 | 0.0 | 0.0 | 0.00 | 0.00 | 0.00 | 88 | 1002.1 |
| 20260506121644 | 72 | 180 | 0.0 | 0.0 | 0.00 | 0.00 | 0.00 | 88 | 1002.1 |
| 20260506120641 | 72 | 180 | 0.0 | 0.0 | 0.00 | 0.00 | 0.00 | 89 | 1001.7 |
| 20260506120539 | 72 | 180 | 0.0 | 0.0 | 0.00 | 0.00 | 0.00 | 89 | 1001.7 |
| 20260506115539 | 71 | 180 | 0.0 | 0.0 | 0.00 | 0.00 | 0.00 | 90 | 1001.7 |
| 20260506114541 | 72 | 180 | 0.0 | 0.0 | 0.00 | 0.00 | 0.00 | 92 | 1001.7 |
| 20260506113541 | 73 | 180 | 0.0 | 0.0 | 0.00 | 0.00 | 0.00 | 92 | 1001.7 |
| 20260506112542 | 72 | 180 | 0.0 | 0.0 | 0.00 | 0.00 | 0.00 | 91 | 1001.4 |
| 20260506111540 | 73 | 180 | 0.0 | 0.0 | 0.00 | 0.00 | 0.00 | 92 | 1001.7 |
| 20260506110541 | 72 | 180 | 0.0 | 0.0 | 0.00 | 0.00 | 0.00 | 91 | 1001.7 |
| 20260506105639 | 73 | 180 | 0.0 | 0.0 | 0.00 | 0.00 | 0.00 | 92 | 1001.4 |
| 20260506104640 | 73 | 180 | 0.0 | 0.0 | 0.00 | 0.00 | 0.00 | 92 | 1001.4 |
| 20260506102641 | 73 | 180 | 0.0 | 0.0 | 0.00 | 0.00 | 0.00 | 91 | 1001.4 |
| 20260506101740 | 73 | 157 | 0.0 | 0.0 | 0.00 | 0.00 | 0.00 | 91 | 1001.1 |
| 20260506095742 | 73 | 180 | 1.0 | 4.0 | 0.00 | 0.00 | 0.00 | 91 | 1001.1 |
| 20260506094742 | 73 | 177 | 2.0 | 4.0 | 0.00 | 0.00 | 0.00 | 90 | 1000.7 |
| 20260506093840 | 73 | 138 | 0.0 | 2.0 | 0.00 | 0.00 | 0.00 | 90 | 1000.7 |
| 20260506092841 | 73 | 180 | 1.0 | 3.0 | 0.00 | 0.00 | 0.00 | 90 | 1000.7 |
| 20260506091841 | 73 | 168 | 2.0 | 6.0 | 0.00 | 0.00 | 0.00 | 90 | 1000.7 |
| 20260506090842 | 73 | 180 | 0.0 | 0.0 | 0.00 | 0.00 | 0.00 | 90 | 1000.4 |
| 20260506085842 | 73 | 180 | 2.0 | 7.0 | 0.00 | 0.00 | 0.00 | 90 | 1000.4 |
| 20260506084939 | 73 | 180 | 1.0 | 5.0 | 0.00 | 0.00 | 0.00 | 90 | 1000.7 |
| 20260506083940 | 73 | 180 | 1.0 | 5.0 | 0.00 | 0.00 | 0.00 | 91 | 1000.7 |
| 20260506082941 | 73 | 172 | 1.0 | 4.0 | 0.00 | 0.00 | 0.00 | 91 | 1000.7 |
| 20260506081941 | 73 | 110 | 0.0 | 3.0 | 0.00 | 0.00 | 0.00 | 91 | 1000.7 |
| 20260506080940 | 73 | 167 | 1.0 | 3.0 | 0.00 | 0.00 | 0.00 | 92 | 1000.7 |
| 20260506072942 | 73 | 170 | 2.0 | 5.0 | 0.00 | 0.00 | 0.00 | 92 | 1001.1 |
| 20260506071941 | 73 | 158 | 0.0 | 3.0 | 0.00 | 0.00 | 0.00 | 92 | 1001.1 |
| 20260506070939 | 73 | 180 | 0.0 | 2.0 | 0.00 | 0.00 | 0.00 | 93 | 1001.1 |
| 20260506062039 | 73 | 179 | 1.0 | 5.0 | 0.00 | 0.00 | 0.00 | 94 | 1000.7 |
| 20260506061040 | 73 | 180 | 0.0 | 3.0 | 0.00 | 0.00 | 0.00 | 94 | 1000.7 |